This is the latest recevied weather packets stored in our database for station/object KF0JHJ. If no packets are shown the sender has not sent any weather packets the latest 1 day(s).
| Time | Temp. | Humidity | Pressure | Rain* | Wind** | Luminosity | Snow |
|---|---|---|---|---|---|---|---|
| 1778032513 | 6.11° C | 52% | 1010.2 hPa | - | - | 0 W/m² | - |
| 1778031907 | 6.11° C | 52% | 1010.1 hPa | - | - | 0 W/m² | - |
| 1778031301 | 6.67° C | 51% | 1010.2 hPa | - | - | 0 W/m² | - |
| 1778030997 | 6.67° C | 51% | 1010 hPa | - | - | 0 W/m² | - |
| 1778030693 | 6.67° C | 50% | 1009.8 hPa | - | - | 0 W/m² | - |
| 1778030390 | 6.67° C | 50% | 1009.8 hPa | - | - | 0 W/m² | - |
| 1778030088 | 7.22° C | 49% | 1009.8 hPa | - | - | 2 W/m² | - |
| 1778029784 | 7.22° C | 49% | 1009.7 hPa | - | - | 4 W/m² | - |
| 1778029179 | 7.78° C | 48% | 1009.3 hPa | - | - | 9 W/m² | - |
| 1778028572 | 7.78° C | 48% | 1009.3 hPa | - | - | 18 W/m² | - |
| 1778028271 | 7.78° C | 47% | 1009 hPa | - | - | 17 W/m² | - |
| 1778027966 | 8.33° C | 47% | 1009.2 hPa | - | - | 24 W/m² | - |
| 1778027663 | 8.33° C | 48% | 1009.2 hPa | - | - | 22 W/m² | - |
| 1778027359 | 8.33° C | 48% | 1009.3 hPa | - | - | 24 W/m² | - |
| 1778026751 | 8.33° C | 47% | 1009.1 hPa | - | - | 18 W/m² | - |
| 1778024934 | 8.89° C | 45% | 1008.9 hPa | - | - | 44 W/m² | - |
| 1778024632 | 9.44° C | 45% | 1008.9 hPa | - | - | 59 W/m² | - |
| 1778021305 | 9.44° C | 43% | 1008.9 hPa | - | - | 66 W/m² | - |
| 1778020700 | 10° C | 44% | 1008.5 hPa | - | - | 117 W/m² | - |
| 1778019789 | 10° C | 43% | 1008.6 hPa | - | - | 113 W/m² | - |
| 1778019183 | 10° C | 41% | 1008.3 hPa | - | - | 139 W/m² | - |
| 1778018880 | 10.56° C | 40% | 1008.3 hPa | - | - | 158 W/m² | - |
| 1778017973 | 10.56° C | 42% | 1008.5 hPa | - | - | 141 W/m² | - |
| 1778016762 | 10° C | 42% | 1008.7 hPa | - | - | 204 W/m² | - |
| 1778014640 | 10° C | 44% | 1008.8 hPa | - | - | 166 W/m² | - |
* Rain since midnight (hover to see other rain measurements)
** Current wind speed in m/s (hover to see current wind gust speed)